Regional Weather Roundup
Issued by NWS

Home | Current Version | Previous Version | Graphics & Text | Print | Product List | Glossary On
Versions: 1 2 3 4 5 6 7 8 9 10 11 12 13 14 15 16 17 18 19 20 21 22 23 24 25 26 27 28 29 30 31 32 33 34 35 36 37 38 39 40 41 42 43 44 45 46 47 48 49 50
000
ASUS43 KOAX 302010
RWRNE

WEATHER ROUNDUP FOR NEBRASKA
NATIONAL WEATHER SERVICE OMAHA NE
300 PM CDT SUN AUG 30 2015

NOTES: SATELLITE DATA IS BEING USED TO AUGMENT CLOUD COVER ABOVE
       12000 FEET.
       "FAIR" INDICATES FEW OR NO CLOUDS BELOW 12,000 FEET WITH NO
       SIGNIFICANT WEATHER AND/OR OBSTRUCTIONS TO VISIBILITY.

  * THESE STATIONS DO NOT REPORT WEATHER SUCH AS RAIN...SNOW OR FOG.

NEZ001>004-019>022-054>056-302100-
NEBRASKA PANHANDLE

CITY           SKY/WX    TMP DP  RH WIND       PRES   REMARKS
SCOTTSBLUFF    SUNNY     95  51  22 E6        29.91F HX  92
ALLIANCE       SUNNY     97  43  15 S13       29.91F HX  93
CHADRON        SUNNY    101  43  13 SW9       29.81F HX  96
KIMBALL        SUNNY     95  37  13 SW9G18    29.98F HX  90
SIDNEY         SUNNY     96  41  15 S8G18     29.98F HX  92
$$

NEZ057>060-069>072-079>082-302100-
SOUTHWEST NEBRASKA

CITY           SKY/WX    TMP DP  RH WIND       PRES   REMARKS
NORTH PLATTE   SUNNY     92  46  20 S14G23    29.95F
IMPERIAL       SUNNY     95  40  14 S21G35    29.97F HX  91
LEXINGTON      SUNNY     88  58  36 S14       29.98F
MCCOOK         SUNNY     96  41  15 S21       29.97F HX  92
OGALLALA       SUNNY     95  46  18 S18G26    29.94F HX  91
$$

NEZ005>010-023>029-035>040-094-302100-
NORTH CENTRAL NEBRASKA

CITY           SKY/WX    TMP DP  RH WIND       PRES   REMARKS
VALENTINE      CLOUDY    96  44  16 S23G35    29.85F HX  92
AINSWORTH      SUNNY     92  46  20 S24G31    29.90F
BROKEN BOW     SUNNY     89  59  36 S15G24    29.96F
O`NEILL        SUNNY     87  61  40 S14       29.93F
ORD            SUNNY     88  56  33 S14G22    29.94F
THEDFORD       SUNNY     93  49  22 S23       29.94F
$$

NEZ041-046>049-061>064-073>077-083>087-302100-
SOUTH CENTRAL NEBRASKA

CITY           SKY/WX    TMP DP  RH WIND       PRES   REMARKS
GRAND ISLAND   SUNNY     79  65  62 SE15G21   30.00
AURORA         SUNNY     75  66  74 S14       30.01F
HASTINGS       SUNNY     79  63  57 S14       30.01F
HEBRON         SUNNY     76  63  62 S7        30.02F
HOLDREGE       SUNNY     83  59  43 S12G17    30.00S
KEARNEY *      SUNNY     84  63  48 S14       29.99S
YORK           SUNNY     73  66  78 S13       30.02F
$$

NEZ011>018-030>034-042>045-302100-
NORTHEAST NEBRASKA

CITY           SKY/WX    TMP DP  RH WIND       PRES   REMARKS
NORFOLK        SUNNY     76  66  71 SE13      29.98F
ALBION         SUNNY     78  66  67 SE10G18   29.98F
BLAIR          CLOUDY    72  64  78 S8        30.03F
COLUMBUS *     SUNNY     75  64  69 S8        30.00F
FREMONT        CLOUDY    73  65  76 SE10      30.03F
TEKAMAH        CLOUDY    73  66  78 S10G18    30.02F
WAYNE          SUNNY     75  67  76 S12       29.99F
$$

NEZ050>053-065>068-078-088>093-302100-
SOUTHEAST NEBRASKA

CITY           SKY/WX    TMP DP  RH WIND       PRES   REMARKS
LINCOLN        MOSUNNY   77  66  68 S9        30.02F
OMAHA EPPLEY   CLOUDY    74  65  73 S10       30.02F
BEATRICE       MOSUNNY   74  65  73 S8        30.03F
FALLS CITY     MOSUNNY   78  69  73 CALM      30.02F
NEBRASKA CITY  CLOUDY    76  64  67 S8        30.04F
PLATTSMOUTH    CLOUDY    74  65  72 S8        30.04F
$$

NEZ044-045-051>053-067-302100-
OMAHA AREA

CITY           SKY/WX    TMP DP  RH WIND       PRES   REMARKS
OMAHA EPPLEY   CLOUDY    74  65  73 S10       30.02F
BLAIR          CLOUDY    72  64  78 S8        30.03F
FREMONT        CLOUDY    73  65  76 SE10      30.03F
MILLARD        CLOUDY    73  65  76 S7        30.03F
OFFUTT AFB     PTSUNNY   75  65  73 S9        30.02F
PLATTSMOUTH    CLOUDY    74  65  72 S8        30.04F
WAHOO          CLOUDY    75  66  72 S10       30.02F
$$



USA.gov is the U.S. government's official web portal to all federal, state and local government web resources and services.